Rhodes, Greece

4:43 PM EET on February 06, 2016 (GMT +0200)
Diagoras

Weather History for LGRP - July, 2013

Change the Weather History Date:

Tuesday, July 16, 2013

  Actual Average (LTBS) Record (LTBS)
Temperature  
Mean Temperature 79 °F -  
Max Temperature 84 °F 87 °F - (-1)
Min Temperature 74 °F 73 °F - (-1)
Cooling Degree Days 14    
Growing Degree Days 29 (Base 50)    
Moisture  
Dew Point 66 °F    
Average Humidity 61    
Maximum Humidity 74    
Minimum Humidity 46    
Precipitation  
Precipitation 0.00 in 0.00 in - ()
Sea Level Pressure  
Sea Level Pressure 29.68 in    
Wind  
Wind Speed 15 mph ()    
Max Wind Speed 40 mph    
Max Gust Speed -    
Visibility 6.1 miles    
Events      
Averages and records for this station are not official NWS values.
T = Trace of Precipitation, MM = Missing Value Source: Averaged Metar Reports

Daily Weather History Graph

Daily Weather History Graph

Search for Another Location

Airport or City:

Trip Planner

Search our weather history database for the weather conditions in past years. The results will help you decide how hot, cold, wet, or windy it might be!

Date:

Astronomy

Jul. 16, 2013 Rise Set
Actual Time 6:02 AM EEST 8:25 PM EEST
Civil Twilight 5:32 AM EEST 8:54 PM EEST
Nautical Twilight 4:55 AM EEST 9:31 PM EEST
Astronomical Twilight 4:15 AM EEST 10:10 PM EEST
Moon 1:49 PM EEST (7/16) 12:14 AM EEST (7/16)
Length of Visible Light 15h 22m
Length of Day
14h 22m
First Quarter, 53% of the Moon is Illuminated
Jul 16
First Quarter
Jul 22
Full
Jul 29
Last Quarter
Aug 7
New
Aug 14
First Quarter

Hourly Weather History & Observations

Time (EEST) Temp. Heat Index Dew Point Humidity Pressure Visibility Wind Dir Wind Speed Gust Speed Precip Events Conditions
12:00 AM 78 °F - 65 °F 56% 29.68 in 6 mi WSW 20.1 mph - -  
12:20 AM 78.8 °F - 64.4 °F 61% 29.68 in - WSW 10.4 mph - N/A   Clear
12:50 AM 78.8 °F - 64.4 °F 61% 29.68 in - SW 9.2 mph - N/A   Clear
1:20 AM 78.8 °F - 64.4 °F 61% 29.68 in - SW 9.2 mph - N/A   Clear
1:50 AM 77.0 °F - 66.2 °F 69% 29.68 in - WSW 11.5 mph - N/A   Clear
2:20 AM 77.0 °F - 66.2 °F 69% 29.68 in - WSW 11.5 mph - N/A   Clear
2:50 AM 77.0 °F - 66.2 °F 69% 29.65 in - SW 12.7 mph - N/A   Clear
3:00 AM 77 °F - 66 °F 61% 29.68 in 6 mi SW 24.6 mph - -  
3:20 AM 77.0 °F - 66.2 °F 69% 29.65 in - SW 12.7 mph - N/A   Clear
3:50 AM 77.0 °F - 68.0 °F 74% 29.65 in - SW 11.5 mph - N/A   Clear
4:20 AM 77.0 °F - 68.0 °F 74% 29.65 in - SW 11.5 mph - N/A   Clear
4:50 AM 77.0 °F - 64.4 °F 65% 29.65 in - WSW 11.5 mph - N/A   Clear
5:20 AM 77.0 °F - 64.4 °F 65% 29.65 in - WSW 11.5 mph - N/A   Clear
5:50 AM 75.2 °F - 66.2 °F 73% 29.68 in - WSW 12.7 mph - N/A   Clear
6:00 AM 75 °F - 65 °F 64% 29.68 in 6 mi WSW 24.6 mph - -  
6:20 AM 75.2 °F - 66.2 °F 73% 29.68 in - WSW 12.7 mph - N/A   Clear
6:50 AM 75.2 °F - 66.2 °F 73% 29.68 in - SW 13.8 mph - N/A   Clear
7:20 AM 75.2 °F - 66.2 °F 73% 29.68 in - SW 13.8 mph - N/A   Clear
7:50 AM 77.0 °F - 66.2 °F 69% 29.68 in - WSW 15.0 mph - N/A   Clear
8:20 AM 77.0 °F - 66.2 °F 69% 29.68 in - WSW 15.0 mph - N/A   Clear
8:50 AM 77.0 °F - 66.2 °F 69% 29.71 in - WSW 17.3 mph - N/A   Clear
9:00 AM 78 °F - 65 °F 56% 29.71 in 6 mi WSW 33.6 mph - -  
9:20 AM 78.8 °F - 66.2 °F 65% 29.71 in - WSW 17.3 mph - N/A   Clear
9:50 AM 80.6 °F 82.7 °F 66.2 °F 61% 29.68 in - WSW 15.0 mph - N/A   Clear
10:20 AM 80.6 °F 82.7 °F 66.2 °F 61% 29.68 in - WSW 15.0 mph - N/A   Clear
10:50 AM 80.6 °F 82.7 °F 66.2 °F 61% 29.68 in - WSW 15.0 mph - N/A   Clear
11:20 AM 80.6 °F 82.7 °F 66.2 °F 61% 29.68 in - WSW 16.1 mph - N/A   Clear
11:50 AM 80.6 °F 82.7 °F 66.2 °F 61% 29.71 in - WSW 15.0 mph - N/A   Clear
12:00 PM 81 °F - 67 °F 53% 29.71 in 6 mi WSW 29.1 mph - -  
12:20 PM 82.4 °F 84.6 °F 66.2 °F 58% 29.71 in - WSW 16.1 mph - N/A   Clear
12:50 PM 82.4 °F 84.6 °F 66.2 °F 58% 29.71 in - WSW 19.6 mph - N/A   Clear
1:20 PM 82.4 °F 84.6 °F 66.2 °F 58% 29.71 in - WSW 19.6 mph - N/A   Clear
1:50 PM 84.2 °F 86.6 °F 66.2 °F 55% 29.71 in - WSW 18.4 mph - N/A   Clear
2:20 PM 84.2 °F 86.6 °F 66.2 °F 55% 29.71 in - WSW 19.6 mph - N/A   Clear
2:50 PM 84.2 °F 86.6 °F 66.2 °F 55% 29.68 in 6.2 mi WSW 19.6 mph - N/A   Partly Cloudy
3:00 PM 84 °F - 66 °F 46% 29.71 in 6 mi WSW 38.0 mph - -   Scattered Clouds
3:20 PM 84.2 °F 86.6 °F 66.2 °F 55% 29.68 in 6.2 mi WSW 19.6 mph - N/A   Partly Cloudy
3:50 PM 84.2 °F 86.6 °F 66.2 °F 55% 29.68 in 6.2 mi WSW 19.6 mph - N/A   Partly Cloudy
4:20 PM 84.2 °F 86.6 °F 66.2 °F 55% 29.68 in 6.2 mi WSW 19.6 mph - N/A   Partly Cloudy
4:50 PM 84.2 °F 86.6 °F 66.2 °F 55% 29.68 in 6.2 mi WSW 19.6 mph - N/A   Partly Cloudy
5:20 PM 84.2 °F 86.6 °F 66.2 °F 55% 29.68 in 6.2 mi WSW 18.4 mph - N/A   Partly Cloudy
5:50 PM 84.2 °F 86.6 °F 66.2 °F 55% 29.68 in 6.2 mi WSW 20.7 mph - N/A   Partly Cloudy
6:00 PM 83 °F - 66 °F 48% 29.69 in 6 mi WSW 40.3 mph - -   Scattered Clouds
6:20 PM 84.2 °F 86.6 °F 66.2 °F 55% 29.68 in 6.2 mi SW 19.6 mph - N/A   Partly Cloudy
6:50 PM 82.4 °F 84.6 °F 66.2 °F 58% 29.68 in 6.2 mi WSW 18.4 mph - N/A   Partly Cloudy
7:20 PM 82.4 °F 84.6 °F 66.2 °F 58% 29.68 in 6.2 mi WSW 18.4 mph - N/A   Partly Cloudy
8:20 PM 80.6 °F 82.7 °F 66.2 °F 61% 29.68 in 6.2 mi SW 12.7 mph - N/A   Partly Cloudy
8:50 PM 80.6 °F 82.3 °F 64.4 °F 58% 29.68 in 6.2 mi SW 12.7 mph - N/A   Partly Cloudy
9:00 PM 80 °F - 64 °F 48% 29.70 in 6 mi SW 24.6 mph - -   Scattered Clouds
9:20 PM 80.6 °F 82.3 °F 64.4 °F 58% 29.68 in 6.2 mi SW 11.5 mph - N/A   Partly Cloudy
9:50 PM 78.8 °F - 64.4 °F 61% 29.68 in 6.2 mi West 11.5 mph - N/A   Partly Cloudy
10:20 PM 78.8 °F - 64.4 °F 61% 29.68 in 6.2 mi SW 11.5 mph - N/A   Partly Cloudy
10:50 PM 78.8 °F - 64.4 °F 61% 29.68 in 6.2 mi WSW 11.5 mph - N/A   Partly Cloudy
11:20 PM 78.8 °F - 64.4 °F 61% 29.68 in 6.2 mi SW 11.5 mph - N/A   Partly Cloudy
11:50 PM 78.8 °F - 62.6 °F 57% 29.68 in 6.2 mi SW 10.4 mph - N/A   Partly Cloudy